User: anonymous   Login
Location: Scultetus-Sternwarte G�rlitz
(51.1356°N, 14.9514°E)
Time: 04:18:53
(UTC+02:00)
Language:

Iridium 3 - Orbit

View from above orbital plane
View from above orbital plane
View from above satellite
View from above satellite

Ground track
Ground track

The orbit data is extracted from the following two-line orbital elements,

1 25431U 98048A   17146.42568253 +.00000144 +00000-0 +44448-4 0  9995
2 25431 086.3967 264.7854 0002436 094.1530 307.7442 14.34217629982497
Epoch (UTC): 26 May 2017 10:12:58
Eccentricity: 0.0002436
inclination: 86.3967°
perigee height: 776 km
apogee height: 779 km
right ascension of ascending node: 264.7854°
argument of perigee: 94.1530°
revolutions per day: 14.34217629
mean anomaly at epoch: 307.7442°
orbit number at epoch: 98249

The dashed part of the orbit path shows where the satellite is in the earth's shadow,  

DLR